Location: Libas
(9.8833°N, 125.9833°E)
Time: 21:00:38
(UTC+00:00)

ATLAS CENTAUR R/B - Pass Details

Date: 27 October 2020
Orbit: 478 x 667 km, 64.7° (Epoch: 22 November)

Event Time Altitude Azimuth Distance (km) Brightness Sun altitude
Rises 20:28:50 0° 209° (SSW) 2,820 4.8 -14.5°
Reaches altitude 10° 20:31:10 10° 213° (SSW) 1,885 3.8 -14.0°
Maximum altitude 20:35:20 58° 292° (WNW) 646 1.3 -13.0°
Drops below altitude 10° 20:39:14 10° 12° (NNE) 1,770 3.9 -12.0°
Sets 20:41:23 0° 16° (NNE) 2,629 4.9 -11.5°
